Miscellaneous Local Product
Issued by NWS Hastings, NE

Home | Current Version | Previous Version | Text Only | Print | Product List | Glossary Off
Versions: 1 2 3 4 5 6 7 8 9 10 11 12 13 14 15 16 17 18 19 20 21 22 23 24 25 26 27 28 29 30 31 32 33 34 35 36 37 38 39 40 41 42 43 44 45 46 47 48 49 50

147
AXUS43 KGID 290102
MISGRI

GID CWA HOURLY WEATHER ROUNDUP
NATIONAL WEATHER SERVICE HASTINGS NE
800 PM CDT THU APR 28 2016

NOTE: "FAIR" INDICATES FEW OR NO CLOUDS BELOW 12,000 FEET WITH NO
SIGNIFICANT WEATHER AND/OR OBSTRUCTIONS TO VISIBILITY.

...SOUTH CENTRAL NEBRASKA...

CITY           SKY/WX    TMP DP  RH WIND       PRES   REMARKS
GRAND ISLAND   CLOUDY    46  40  79 N13       30.04S
HASTINGS       CLOUDY    48  40  73 N12       30.03S
KEARNEY        CLOUDY    46  39  76 NE10      30.05R
ORD            CLOUDY    45  39  79 N10       30.04S
YORK           CLOUDY    46  41  81 N14       30.05R
AURORA         CLOUDY    47  42  83 N13       30.04R
LEXINGTON      CLOUDY    46  41  83 N6        30.04S
HOLDREGE       CLOUDY    46  41  81 N9        30.04R
HEBRON         CLOUDY    51  43  73 N8        30.03R

...NEBRASKA PANHANDLE...

CITY           SKY/WX    TMP DP  RH WIND       PRES   REMARKS
CHADRON        CLOUDY    41  35  79 NE9       30.08S
ALLIANCE       LGT SNOW  32  32 100 W3        30.06R FOG
SCOTTSBLUFF    CLOUDY    38  34  85 E3        30.06S
SIDNEY         CLOUDY    40  33  76 NE6       30.05R

...WESTERN AND NORTH CENTRAL NEBRASKA...

CITY           SKY/WX    TMP DP  RH WIND       PRES   REMARKS
VALENTINE      CLOUDY    40  36  86 NW8       30.09R FOG     WCI  34
AINSWORTH      CLOUDY    41  36  84 N6        30.08R
ONEILL         CLOUDY    42  40  92 N8        30.07S
BROKEN BOW     LGT RAIN  44  39  82 N8        30.04R
IMPERIAL       CLOUDY    45  37  73 N5        30.05R
NORTH PLATTE   CLOUDY    44  38  79 NW3       30.05R
MCCOOK         CLOUDY    47  38  71 N8        30.05R

...EASTERN NEBRASKA...

CITY           SKY/WX    TMP DP  RH WIND       PRES   REMARKS
NORFOLK        CLOUDY    43  38  82 NW8       30.06R
SO SIOUX CITY  CLOUDY    45  39  79 N12       30.05F
TEKAMAH        CLOUDY    46  40  79 N14       30.04S
COLUMBUS       CLOUDY    45  34  65 NW12      30.06R
ALBION         CLOUDY    43  39  84 N6        30.06S
OMAHA EPPLEY   CLOUDY    47  42  83 N15       30.02S
MILLARD        CLOUDY    49  41  74 N5        30.02S
LINCOLN        CLOUDY    50  40  68 N9        30.04R
NEBRASKA CITY  CLOUDY    50  42  75 N10       30.01R
BEATRICE       CLOUDY    50  42  72 N9        30.03R
FALLS CITY     CLOUDY    52  42  69 N7        30.02R

...NORTHERN KANSAS...

CITY           SKY/WX    TMP DP  RH WIND       PRES   REMARKS
GOODLAND       CLOUDY    48  37  65 NE10      30.01S
HILL CITY      MOCLDY    53  41  63 NE10      30.03R
NORTON         CLOUDY    50  37  62 N8        30.02
PHILLIPSBURG   CLOUDY    52  43  71 CALM      30.04R
SMITH CENTER   CLOUDY    48  41  76 N7        30.03R
BELOIT         CLOUDY    52  41  66 N10       30.01S
HAYS           MOCLDY    55  37  50 NE7       30.01R
RUSSELL        PTCLDY    56  43  61 NE9       29.99R
CONCORDIA      CLOUDY    52  43  71 N10       30.01S
SALINA         CLEAR     59  44  57 NE9       30.00R
TOPEKA         CLEAR     55  45  68 N8        30.00S



USA.gov is the U.S. government's official web portal to all federal, state and local government web resources and services.